Location: Proctor
(47.8934°N, 114.3048°W)
Time: 21:12:41
(UTC+00:00)

Tiros 1 despin weight - Pass Details

Date: 30 June 2024
Orbit: 576 x 620 km, 48.2° (Epoch: 19 July)

Event Time Altitude Azimuth Distance (km) Brightness Sun altitude
Rises 18:59:44 0° 266° (W) 2,880 ? 63.9°
Reaches altitude 10° 19:02:01 10° 267° (W) 1,980 ? 64.0°
Maximum altitude 19:06:35 86° 353° (N) 627 ? 64.3°
Drops below altitude 10° 19:11:12 10° 86° (E) 1,988 ? 64.5°
Sets 19:13:30 0° 87° (E) 2,894 ? 64.6°
